This demonstration page uses our WeatherBlox Daily Observations layout. Learn more.

Left ArrowRight Arrow

34.02893, -84.19858

Hourly Observations for April 22, 2019

Temp ( °F °C ) Dew Point ( °F °C ) Humidity (%) Winds ( mph kmh ) Pressure ( in mb ) Visibility ( mi km ) Precip ( " mm )
12:53 am 00:53 Clear 47 8.3 43 6.1 86 86 Calm 30.16 1021 10 16 0.00 0.00
1:53 am 01:53 Clear 47 8.3 43 6.1 86 86 Calm 30.16 1021 10 16 0.00 0.00
2:53 am 02:53 Clear 44 6.7 43 6.1 96 96 Calm 30.16 1021 10 16 0.00 0.00
3:53 am 03:53 Clear 44 6.7 43 6.1 96 96 Calm 30.15 1021 10 16 0.00 0.00
4:53 am 04:53 Clear 44 6.7 42 5.6 93 93 Calm 30.16 1021 10 16 0.00 0.00
5:53 am 05:53 Clear 43 6.1 41 5 93 93 Calm 30.17 1022 10 16 0.00 0.00
6:53 am 06:53 Clear 43 6.1 42 5.6 97 97 Calm 30.18 1022 N/A 0.00 0.00
7:53 am 07:53 Sunny 45 7.2 45 7.2 100 100 Calm 30.20 1023 N/A 0.00 0.00
8:53 am 08:53 Sunny 56 13.3 45 7.2 67 67 Calm 30.22 1023 10 16 0.00 0.00
9:53 am 09:53 Sunny 61 16.1 42 5.6 50 50 NNW 3 6 30.22 1023 10 16 0.00 0.00
10:53 am 10:53 Sunny 66 18.9 41 5 40 40 Calm 30.21 1023 10 16 0.00 0.00
11:53 am 11:53 Sunny 70 21.1 39 3.9 32 32 undefined N/A 30.21 1023 10 16 0.00 0.00
12:53 pm 12:53 Sunny 73 22.8 36 2.2 26 26 WNW 5 7 30.19 1022 10 16 0.00 0.00
1:53 pm 13:53 Sunny 76 24.4 40 4.4 27 27 WSW 6 9 30.16 1021 10 16 0.00 0.00
2:53 pm 14:53 Sunny 78 25.6 41 5 27 27 Calm 30.14 1021 10 16 0.00 0.00
3:53 pm 15:53 Sunny 79 26.1 43 6.1 28 28 undefined N/A 30.12 1020 10 16 0.00 0.00
4:53 pm 16:53 Sunny 79 26.1 44 6.7 29 29 W 5 7 30.11 1020 10 16 0.00 0.00
5:53 pm 17:53 Sunny 80 26.7 45 7.2 29 29 WNW 6 9 30.11 1020 10 16 0.00 0.00
6:53 pm 18:53 Sunny 78 25.6 45 7.2 31 31 W 7 11 30.11 1020 10 16 0.00 0.00
7:53 pm 19:53 Sunny 74 23.3 47 8.3 38 38 W 5 7 30.10 1019 10 16 0.00 0.00
8:53 pm 20:53 Clear 67 19.4 49 9.4 53 53 Calm 30.11 1020 10 16 0.00 0.00
9:53 pm 21:53 Clear 62 16.7 50 10 65 65 Calm 30.12 1020 10 16 0.00 0.00
10:53 pm 22:53 Clear 60 15.6 51 10.6 72 72 Calm 30.12 1020 10 16 0.00 0.00
11:53 pm 23:53 Clear 58 14.4 52 11.1 81 81 Calm 30.13 1020 10 16 0.00 0.00

Powered by AerisWeather